TimeAKST,TemperatureF,Dew PointF,Humidity,Sea Level PressureIn,VisibilityMPH,Wind Direction,Wind SpeedMPH,Gust SpeedMPH,PrecipitationIn,Events,Conditions,WindDirDegrees,DateUTC
12:53 AM,12.9,9.0,84,29.54,10.0,Calm,Calm,-,N/A,,Mostly Cloudy,0,2013-01-06 09:53:00
1:53 AM,12.9,10.0,88,29.55,10.0,Variable,3.5,-,N/A,,Mostly Cloudy,0,2013-01-06 10:53:00
3:53 AM,7.0,5.0,92,29.56,10.0,Calm,Calm,-,N/A,,Mostly Cloudy,0,2013-01-06 12:53:00
4:53 AM,8.1,6.1,92,29.55,10.0,NNW,3.5,-,N/A,,Clear,340,2013-01-06 13:53:00
5:53 AM,9.0,6.1,88,29.56,10.0,North,4.6,-,N/A,,Clear,360,2013-01-06 14:53:00
6:02 AM,8.1,5.0,87,29.42,10.0,North,3.5,-,N/A,,Scattered Clouds,360,2013-01-06 15:02:00
6:53 AM,8.1,5.0,87,29.55,10.0,NNW,4.6,-,N/A,,Mostly Cloudy,330,2013-01-06 15:53:00
7:53 AM,3.0,-0.9,84,29.55,10.0,Calm,Calm,-,N/A,,Scattered Clouds,0,2013-01-06 16:53:00
8:53 AM,-0.0,-4.0,83,29.56,10.0,Calm,Calm,-,N/A,,Scattered Clouds,0,2013-01-06 17:53:00
9:53 AM,1.9,-2.0,83,29.54,10.0,Calm,Calm,-,N/A,,Scattered Clouds,0,2013-01-06 18:53:00
10:53 AM,3.0,-0.0,87,29.53,10.0,Calm,Calm,-,N/A,,Scattered Clouds,0,2013-01-06 19:53:00
11:53 AM,7.0,1.9,80,29.52,10.0,North,3.5,-,N/A,,Scattered Clouds,360,2013-01-06 20:53:00
12:53 PM,12.0,7.0,80,29.49,10.0,Calm,Calm,-,N/A,,Scattered Clouds,0,2013-01-06 21:53:00
1:53 PM,5.0,1.9,87,29.48,10.0,North,4.6,-,N/A,,Scattered Clouds,350,2013-01-06 22:53:00
2:53 PM,7.0,3.9,87,29.46,10.0,NNE,5.8,-,N/A,,Mostly Cloudy,20,2013-01-06 23:53:00
3:53 PM,8.1,5.0,87,29.44,10.0,Calm,Calm,-,N/A,,Overcast,0,2013-01-07 00:53:00
4:53 PM,9.0,6.1,88,29.41,10.0,WNW,5.8,-,N/A,,Overcast,290,2013-01-07 01:53:00
5:53 PM,10.9,7.0,84,29.39,10.0,Calm,Calm,-,N/A,,Overcast,0,2013-01-07 02:53:00
6:53 PM,12.0,8.1,84,29.37,10.0,North,3.5,-,N/A,,Overcast,360,2013-01-07 03:53:00
7:53 PM,12.9,10.0,88,29.35,10.0,Calm,Calm,-,N/A,,Overcast,0,2013-01-07 04:53:00
8:53 PM,10.9,9.0,92,29.34,10.0,ESE,4.6,-,N/A,,Overcast,110,2013-01-07 05:53:00
9:00 PM,10.9,9.0,92,29.19,10.0,East,3.5,-,N/A,,Overcast,90,2013-01-07 06:00:00
9:27 PM,10.9,8.1,88,29.17,10.0,NE,3.5,-,N/A,,Overcast,40,2013-01-07 06:27:00
9:53 PM,10.0,7.0,87,29.31,10.0,Calm,Calm,-,N/A,,Mostly Cloudy,0,2013-01-07 06:53:00
10:53 PM,10.9,8.1,88,29.32,10.0,SSE,4.6,-,N/A,,Overcast,160,2013-01-07 07:53:00
11:53 PM,9.0,6.1,88,29.30,10.0,Calm,Calm,-,N/A,,Clear,0,2013-01-07 08:53:00